Weather in Yasynuvata

Ukraine / Donetsk Region     48°07′47″N   37°51′33″E
temp.,
°C
wind,
m/s
gust,
m/s
humid.,
%
clouds,
%
prec.,
mm/h
press.,
hPa
HPBL,
m
24 october, sun
sun2400:00+10nw386654 0.0 1019299
03:00+6nnw226285 0.0 102127
06:00+5nw226633 0.0 102116
09:00+7nw3457100 0.0 1022219
12:00+10nnw4442100 0.0 10221076
15:00+10nnw3441100 0.0 10211480
18:00+7wnw234899 0.0 102344
21:00+6nw365515 0.0 1024116
25 october, mon
mon2500:00+5nnw588385 0.0 1025387
03:00+2nw4107939 0.0 1026250
06:00+3n59748 0.0 1028583
09:00+3n47685 0.0 1030520
12:00+6n56403 0.0 10311251
15:00+7n45330 0.0 10311436
18:00+4n33415 0.0 103240
21:00+2nne22455 0.0 103311
26 october, tue
tue2600:00+1ne11480 0.0 103411
03:00+1ne01510 0.0 103410
06:000ene11530 0.0 103410
09:00+3se11425 0.0 1034149
12:00+8sse22295 0.0 1033875
15:00+9s22245 0.0 10311006
18:00+5sse22305 0.0 103112
21:00+4sse22355 0.0 103118
27 october, wed
wed2700:00+3sse22402 0.0 103119
03:00+2sse22440 0.0 103017
06:00+1se22450 0.0 103017
09:00+4se35350 0.0 1030248
12:00+9se45260 0.0 1028604
15:00+11sse34210 0.0 1026743
18:00+7se33290 0.0 102617
21:00+5sse22350 0.0 102611
28 october, thu
thu2800:00+4s11400 0.0 102610
03:00+3n01430 0.0 102510
06:00+2nne114427 0.0 102510
09:00+5nne123516 0.0 1026104
12:00+10nne212598 0.0 1026552
15:00+12nnw2322100 0.0 1024909
18:00+8nnw223294 0.0 102511
21:00+6nnw11444 0.0 102510